Weather History for Chadron, NE

Change the Weather History Date:

Monday, May 5, 2014

  Actual Average Record
Temperature  
Mean Temperature 56 °F 52 °F  
Max Temperature 74 °F 67 °F 97 °F (2004)
Min Temperature 38 °F 37 °F 18 °F (1944)
Degree Days  
Heating Degree Days 9 13  
Month to date heating degree days 51 70  
Since 1 July heating degree days 6969 6833  
Cooling Degree Days 0 0  
Month to date cooling degree days 0 0  
Year to date cooling degree days 1 2  
Growing Degree Days 5 (Base 50)    
Moisture  
Dew Point 46 °F    
Average Humidity 72    
Maximum Humidity 96    
Minimum Humidity 48    
Precipitation  
Precipitation 0.00 in 0.08 in 1.30 in (1942)
Month to date precipitation 0.00 0.42  
Year to date precipitation 4.30 4.60  
Sea Level Pressure  
Sea Level Pressure 29.76 in    
Wind  
Wind Speed 13 mph (SE)    
Max Wind Speed 37 mph    
Max Gust Speed 47 mph    
Visibility 10 miles    
Events      
T = Trace of Precipitation, MM = Missing Value Source: NWS Daily Summary

Daily Weather History Graph

Daily Weather History Graph

Search for Another Location

Airport:

Trip Planner

Search our weather history database for the weather conditions in past years. The results will help you decide how hot, cold, wet, or windy it might be!

Date:

Astronomy

May. 05, 2014 Rise Set
Actual Time 5:41 AM MDT 7:57 PM MDT
Civil Twilight 5:09 AM MDT 8:29 PM MDT
Nautical Twilight 4:31 AM MDT 9:08 PM MDT
Astronomical Twilight 3:48 AM MDT 9:51 PM MDT
Moon 11:03 AM MDT (5/5) 12:42 AM MDT (5/5)
Length of Visible Light 15h 19m
Length of Day
14h 16m
Waxing Crescent, 37% of the Moon is Illuminated
May 5
Waxing Crescent
May 6
First Quarter
May 14
Full
May 21
Last Quarter
May 28
New

Hourly Weather History & Observations

Time (MDT) Temp. Windchill Dew Point Humidity Pressure Visibility Wind Dir Wind Speed Gust Speed Precip Events Conditions
12:53 AM 46.9 °F - 42.1 °F 83% 29.82 in 10.0 mi NE 3.5 mph - N/A   Clear
1:53 AM 45.0 °F - 41.0 °F 86% 29.82 in 10.0 mi Calm Calm - N/A   Clear
2:53 AM 42.1 °F 40.2 °F 39.9 °F 92% 29.85 in 10.0 mi West 3.5 mph - N/A   Clear
3:53 AM 42.1 °F 37.7 °F 39.9 °F 92% 29.86 in 10.0 mi SSW 6.9 mph - N/A   Clear
4:53 AM 41.0 °F 38.0 °F 39.0 °F 93% 29.86 in 10.0 mi South 4.6 mph - N/A   Clear
5:53 AM 39.0 °F 35.7 °F 37.0 °F 93% 29.87 in 8.0 mi WNW 4.6 mph - N/A   Clear
6:53 AM 42.1 °F 40.2 °F 41.0 °F 96% 29.88 in 10.0 mi North 3.5 mph - N/A   Clear
7:53 AM 48.0 °F - 43.0 °F 83% 29.88 in 10.0 mi North 5.8 mph - N/A   Clear
8:53 AM 52.0 °F - 44.1 °F 74% 29.88 in 10.0 mi NNE 8.1 mph - N/A   Clear
9:53 AM 55.0 °F - 46.0 °F 72% 29.87 in 10.0 mi East 4.6 mph - N/A   Clear
10:53 AM 61.0 °F - 48.9 °F 64% 29.83 in 10.0 mi NE 5.8 mph - N/A   Clear
12:53 PM 71.1 °F - 51.1 °F 49% 29.78 in 10.0 mi SSE 12.7 mph - N/A   Clear
1:53 PM 71.1 °F - 51.1 °F 49% 29.76 in 10.0 mi SSE 17.3 mph - N/A   Clear
2:53 PM 71.1 °F - 51.1 °F 49% 29.74 in 10.0 mi SSE 18.4 mph - N/A   Clear
3:53 PM 71.1 °F - 51.1 °F 49% 29.70 in 10.0 mi SSE 17.3 mph - N/A   Clear
4:53 PM 70.0 °F - 51.1 °F 51% 29.68 in 10.0 mi SSE 13.8 mph 24.2 mph N/A   Clear
5:53 PM 70.0 °F - 52.0 °F 53% 29.67 in 10.0 mi SE 8.1 mph - N/A   Clear
6:53 PM 68.0 °F - 52.0 °F 56% 29.65 in 10.0 mi ESE 8.1 mph - N/A   Clear
7:53 PM 66.0 °F - 48.9 °F 54% 29.62 in 10.0 mi ESE 11.5 mph - N/A   Clear
8:53 PM 66.9 °F - 46.0 °F 47% 29.59 in 10.0 mi SSE 24.2 mph 29.9 mph N/A   Clear
10:53 PM 63.0 °F - 45.0 °F 52% 29.57 in 10.0 mi South 29.9 mph 41.4 mph N/A   Clear
11:53 PM 62.1 °F - 44.1 °F 52% 29.55 in 10.0 mi South 31.1 mph 44.9 mph N/A   Clear